When you browse on this site, cookies collect data to enhance your experience and personalize the content and advertising you see.
Visit our Privacy Policy to learn more. By continuing to use the site, you agree to this use of cookies and data.
  • In Österreich
  • Länderverzeichnis
  • Für 7 Tage
  • Wassertemperatur
  • Wetterkarte
  • News
  • Widgets
  • user-avatar
    Anmelden

    Stündliche Wetter Popayán

    Heute, 23 September, Montag

    Zeit Temperatur Niederschläge Wind Luftdruck Luftfeuchtigkeit
    00:00 +15°C° 0.1 mm 1 m/S 619 mmHg 89%
    01:00 +15°C° 0 mm 1 m/S 618 mmHg 88%
    02:00 +15°C° 0 mm 1 m/S 618 mmHg 88%
    03:00 +15°C° 0 mm 1 m/S 618 mmHg 88%
    04:00 +15°C° 0 mm 1 m/S 618 mmHg 88%
    05:00 +15°C° 0 mm 1 m/S 619 mmHg 86%
    06:00 +16°C° 0 mm 1 m/S 619 mmHg 85%
    07:00 +18°C° 0 mm 1 m/S 620 mmHg 84%
    08:00 +21°C° 0 mm 1 m/S 621 mmHg 73%
    09:00 +23°C° 0 mm 1 m/S 622 mmHg 62%
    10:00 +26°C° 0 mm 1 m/S 623 mmHg 52%
    11:00 +26°C° 0.2 mm 1 m/S 623 mmHg 51%
    12:00 +26°C° 0.2 mm 2 m/S 622 mmHg 51%
    13:00 +26°C° 0.2 mm 2 m/S 621 mmHg 50%
    14:00 +25°C° 0.6 mm 2 m/S 620 mmHg 59%
    15:00 +24°C° 0.6 mm 1 m/S 620 mmHg 68%
    16:00 +23°C° 0.6 mm 1 m/S 619 mmHg 76%
    17:00 +21°C° 0.5 mm 1 m/S 619 mmHg 82%
    18:00 +19°C° 0.5 mm 1 m/S 618 mmHg 87%
    19:00 +18°C° 0.5 mm 1 m/S 618 mmHg 92%
    20:00 +16°C° 0 mm 1 m/S 618 mmHg 90%
    21:00 +16°C° 0 mm 1 m/S 618 mmHg 89%
    22:00 +15°C° 0 mm 1 m/S 619 mmHg 87%
    23:00 +15°C° 0 mm 1 m/S 619 mmHg 87%

    Morgen, 24 September, Dienstag

    Zeit Temperatur Niederschläge Wind Luftdruck Luftfeuchtigkeit
    00:00 +16°C° 0 mm 1 m/S 618 mmHg 86%
    01:00 +16°C° 0 mm 1 m/S 618 mmHg 86%
    02:00 +16°C° 0 mm 1 m/S 618 mmHg 86%
    03:00 +16°C° 0 mm 1 m/S 618 mmHg 86%
    04:00 +15°C° 0 mm 1 m/S 618 mmHg 86%
    05:00 +16°C° 0 mm 1 m/S 618 mmHg 84%
    06:00 +18°C° 0 mm 1 m/S 619 mmHg 83%
    07:00 +18°C° 0 mm 1 m/S 620 mmHg 82%
    08:00 +20°C° 0.1 mm 1 m/S 621 mmHg 74%
    09:00 +23°C° 0.1 mm 1 m/S 622 mmHg 67%
    10:00 +25°C° 0.1 mm 1 m/S 623 mmHg 59%
    11:00 +25°C° 0.4 mm 1 m/S 622 mmHg 60%
    12:00 +25°C° 0.4 mm 1 m/S 622 mmHg 61%
    13:00 +25°C° 0.4 mm 1 m/S 621 mmHg 62%
    14:00 +24°C° 1.1 mm 1 m/S 620 mmHg 70%
    15:00 +23°C° 1.1 mm 1 m/S 620 mmHg 77%
    16:00 +22°C° 1.1 mm 1 m/S 619 mmHg 85%
    17:00 +21°C° 0.8 mm 1 m/S 619 mmHg 87%
    18:00 +20°C° 0.8 mm 1 m/S 619 mmHg 89%
    19:00 +19°C° 0.8 mm 1 m/S 619 mmHg 91%
    20:00 +18°C° 0.6 mm 1 m/S 619 mmHg 91%
    21:00 +18°C° 0.6 mm 1 m/S 619 mmHg 90%
    22:00 +18°C° 0.6 mm 1 m/S 619 mmHg 90%
    23:00 +16°C° 0.3 mm 1 m/S 619 mmHg 90%

    übermorgen, 25 September, Mittwoch

    Zeit Temperatur Niederschläge Wind Luftdruck Luftfeuchtigkeit
    00:00 +16°C° 0.3 mm 1 m/S 619 mmHg 90%
    01:00 +16°C° 0.3 mm 1 m/S 619 mmHg 90%
    02:00 +16°C° 0.1 mm 1 m/S 619 mmHg 90%
    03:00 +16°C° 0.1 mm 1 m/S 618 mmHg 90%
    04:00 +16°C° 0.1 mm 1 m/S 618 mmHg 90%
    05:00 +16°C° 0 mm 1 m/S 619 mmHg 89%
    06:00 +18°C° 0 mm 1 m/S 619 mmHg 88%
    07:00 +18°C° 0 mm 1 m/S 620 mmHg 86%
    08:00 +20°C° 0.1 mm 1 m/S 621 mmHg 79%
    09:00 +22°C° 0.1 mm 1 m/S 622 mmHg 72%
    10:00 +25°C° 0.1 mm 1 m/S 623 mmHg 65%
    11:00 +25°C° 0.8 mm 1 m/S 622 mmHg 65%
    12:00 +25°C° 0.8 mm 1 m/S 622 mmHg 66%
    13:00 +26°C° 0.8 mm 1 m/S 621 mmHg 67%
    14:00 +24°C° 1.7 mm 1 m/S 620 mmHg 74%
    15:00 +23°C° 1.7 mm 1 m/S 619 mmHg 80%
    16:00 +22°C° 1.7 mm 1 m/S 619 mmHg 87%
    17:00 +21°C° 1.6 mm 1 m/S 618 mmHg 90%
    18:00 +20°C° 1.6 mm 1 m/S 618 mmHg 93%
    19:00 +18°C° 1.6 mm 1 m/S 618 mmHg 96%
    20:00 +18°C° 1.2 mm 1 m/S 619 mmHg 95%
    21:00 +18°C° 1.2 mm 1 m/S 619 mmHg 94%
    22:00 +18°C° 1.2 mm 1 m/S 620 mmHg 94%
    23:00 +18°C° 0.2 mm 1 m/S 619 mmHg 93%

    26 September, Donnerstag

    Zeit Temperatur Niederschläge Wind Luftdruck Luftfeuchtigkeit
    00:00 +18°C° 0.2 mm 1 m/S 619 mmHg 93%
    01:00 +16°C° 0.2 mm 1 m/S 619 mmHg 93%
    02:00 +16°C° 0 mm 1 m/S 618 mmHg 92%
    03:00 +16°C° 0 mm 1 m/S 618 mmHg 92%
    04:00 +16°C° 0 mm 1 m/S 618 mmHg 92%
    05:00 +16°C° 0 mm 1 m/S 619 mmHg 90%
    06:00 +18°C° 0 mm 1 m/S 619 mmHg 89%
    07:00 +18°C° 0 mm 1 m/S 620 mmHg 87%
    08:00 +20°C° 0 mm 1 m/S 621 mmHg 79%
    09:00 +22°C° 0 mm 1 m/S 622 mmHg 71%
    10:00 +24°C° 0 mm 1 m/S 622 mmHg 62%
    11:00 +24°C° 0.6 mm 1 m/S 622 mmHg 65%
    12:00 +24°C° 0.6 mm 1 m/S 621 mmHg 69%
    13:00 +23°C° 0.6 mm 1 m/S 620 mmHg 72%
    14:00 +23°C° 0.8 mm 1 m/S 620 mmHg 73%
    15:00 +23°C° 0.8 mm 1 m/S 619 mmHg 74%
    16:00 +23°C° 0.8 mm 1 m/S 619 mmHg 75%
    17:00 +21°C° 0.7 mm 1 m/S 619 mmHg 81%
    18:00 +20°C° 0.7 mm 1 m/S 618 mmHg 87%
    19:00 +18°C° 0.7 mm 1 m/S 618 mmHg 93%
    20:00 +16°C° 0.2 mm 1 m/S 618 mmHg 92%
    21:00 +16°C° 0.2 mm 1 m/S 618 mmHg 92%
    22:00 +16°C° 0.2 mm 1 m/S 619 mmHg 92%
    23:00 +15°C° 0 mm 1 m/S 618 mmHg 91%

    27 September, Freitag

    Zeit Temperatur Niederschläge Wind Luftdruck Luftfeuchtigkeit
    00:00 +15°C° 0 mm 1 m/S 618 mmHg 91%
    01:00 +15°C° 0 mm 1 m/S 618 mmHg 90%
    02:00 +15°C° 0 mm 1 m/S 618 mmHg 90%
    03:00 +15°C° 0 mm 1 m/S 617 mmHg 89%
    04:00 +15°C° 0 mm 1 m/S 617 mmHg 89%
    05:00 +16°C° 0 mm 1 m/S 618 mmHg 87%
    06:00 +16°C° 0 mm 1 m/S 619 mmHg 86%
    07:00 +18°C° 0 mm 1 m/S 619 mmHg 84%
    08:00 +20°C° 0 mm 1 m/S 620 mmHg 76%
    09:00 +23°C° 0 mm 1 m/S 621 mmHg 67%
    10:00 +25°C° 0 mm 1 m/S 622 mmHg 59%
    11:00 +25°C° 0.7 mm 1 m/S 622 mmHg 62%
    12:00 +25°C° 0.7 mm 1 m/S 621 mmHg 64%
    13:00 +25°C° 0.7 mm 1 m/S 620 mmHg 67%
    14:00 +24°C° 1.3 mm 1 m/S 620 mmHg 72%
    15:00 +24°C° 1.3 mm 1 m/S 619 mmHg 76%
    16:00 +23°C° 1.3 mm 1 m/S 618 mmHg 80%
    17:00 +21°C° 0.8 mm 1 m/S 618 mmHg 85%
    18:00 +20°C° 0.8 mm 1 m/S 618 mmHg 89%
    19:00 +18°C° 0.8 mm 1 m/S 617 mmHg 94%
    20:00 +16°C° 0.1 mm 1 m/S 618 mmHg 94%
    21:00 +16°C° 0.1 mm 1 m/S 618 mmHg 93%
    22:00 +16°C° 0.1 mm 1 m/S 618 mmHg 93%
    23:00 +15°C° 0.1 mm 1 m/S 618 mmHg 93%

    28 September, Samstag

    Zeit Temperatur Niederschläge Wind Luftdruck Luftfeuchtigkeit
    00:00 +15°C° 0.1 mm 1 m/S 618 mmHg 93%
    01:00 +15°C° 0.1 mm 1 m/S 618 mmHg 92%
    02:00 +15°C° 0.2 mm 1 m/S 617 mmHg 92%
    03:00 +15°C° 0.2 mm 1 m/S 617 mmHg 92%
    04:00 +15°C° 0.2 mm 1 m/S 617 mmHg 92%
    05:00 +15°C° 0 mm 1 m/S 617 mmHg 90%
    06:00 +16°C° 0 mm 1 m/S 618 mmHg 88%
    07:00 +16°C° 0 mm 0 m/S 619 mmHg 86%
    08:00 +20°C° 0.1 mm 1 m/S 620 mmHg 80%
    09:00 +22°C° 0.1 mm 1 m/S 621 mmHg 73%
    10:00 +24°C° 0.1 mm 1 m/S 622 mmHg 67%
    11:00 +24°C° 0.9 mm 1 m/S 621 mmHg 70%
    12:00 +24°C° 0.9 mm 1 m/S 620 mmHg 73%
    13:00 +24°C° 0.9 mm 1 m/S 619 mmHg 77%
    14:00 +23°C° 1.9 mm 1 m/S 619 mmHg 81%
    15:00 +22°C° 1.9 mm 1 m/S 618 mmHg 85%
    16:00 +21°C° 1.9 mm 1 m/S 617 mmHg 89%
    17:00 +20°C° 1.1 mm 1 m/S 617 mmHg 91%
    18:00 +19°C° 1.1 mm 1 m/S 617 mmHg 94%
    19:00 +18°C° 1.1 mm 1 m/S 617 mmHg 96%
    20:00 +18°C° 0.3 mm 1 m/S 618 mmHg 96%
    21:00 +16°C° 0.3 mm 0 m/S 618 mmHg 95%
    22:00 +15°C° 0.3 mm 0 m/S 618 mmHg 95%
    23:00 +15°C° 0 mm 0 m/S 618 mmHg 95%
    Mehr zeigen